Regional Weather Roundup
Issued by NWS

Home | Current Version | Previous Version | Text Only | Print | Product List | Glossary On
Versions: 1 2 3 4 5 6 7 8 9 10 11 12 13 14 15 16 17 18 19 20 21 22 23 24 25 26 27 28 29 30 31 32 33 34 35 36 37 38 39 40 41 42 43 44 45 46 47 48 49 50
000
ASUS44 KOUN 032010
RWROK

WEATHER ROUNDUP FOR OKLAHOMA
NATIONAL WEATHER SERVICE NORMAN OK
300 PM CDT MON AUG 03 2015

NOTE: "FAIR" INDICATES FEW OR NO CLOUDS BELOW 12,000 FEET WITH NO
      SIGNIFICANT WEATHER AND/OR OBSTRUCTIONS TO VISIBILITY.

OKZ001>007-009>012-014-015-017-032100-
NORTHWEST OKLAHOMA AND THE PANHANDLE

CITY           SKY/WX    TMP DP  RH WIND       PRES   REMARKS
GAGE           CLOUDY    85  66  53 S9        29.96F
GUYMON         SUNNY     86  67  52 S10       29.97F
$$

OKZ016-021>023-033>039-044-045-032100-
SOUTHWEST OKLAHOMA

CITY           SKY/WX    TMP DP  RH WIND       PRES   REMARKS
LAWTON/REGL    PTSUNNY   86  69  56 SE9       29.94F HX  90
LAWTON/FT SILL PTSUNNY   86  71  61 SE9       29.93F HX  91
FREDERICK      PTSUNNY   85  72  65 SE7       29.92F HX  91
CLINTON        CLOUDY    85  69  58 SE12      29.98F
HOBART         CLOUDY    83  69  62 S9        29.96F
ALTUS AFB      PTSUNNY   86  71  60 SE10      29.94F HX  91
$$

OKZ018>020-024>031-032100-
CENTRAL OKLAHOMA

CITY           SKY/WX    TMP DP  RH WIND       PRES   REMARKS
OKLAHOMA CITY  PTSUNNY   81  65  59 SE6       29.96F
OKC/WILEY POST PTSUNNY   85  66  53 S10       29.96S
OKC/TINKER AFB CLOUDY    83  66  55 S7        29.96S
STILLWATER     PTSUNNY   94  63  35 SW8       29.93S HX  95
GUTHRIE        PTSUNNY   90  64  42 S12       29.94S HX  91
$$

OKZ008-013-054>072-032100-
NORTHEAST OKLAHOMA

CITY           SKY/WX    TMP DP  RH WIND       PRES   REMARKS
TULSA          PTSUNNY   93  65  39 SE7       29.93S HX  95
TULSA/JONES    PTSUNNY   91  66  43 S6        29.94S HX  93
PONCA CITY     PTSUNNY   92  68  45 S6        29.93S HX  96
BARTLESVILLE   PTSUNNY   93  67  42 VRB5      29.94S HX  96
MUSKOGEE       PTSUNNY   90  68  48 CALM      29.96S HX  94
$$

OKZ032-040>043-046>053-073>077-032100-
SOUTH CENTRAL/SOUTHEAST OKLAHOMA

CITY           SKY/WX    TMP DP  RH WIND       PRES   REMARKS
ARDMORE/DWNTWN PTSUNNY   91  59  33 SE7       29.92F HX  90
MCALESTER      MOSUNNY   95  59  30 VRB5      29.94F HX  94
$$



USA.gov is the U.S. government's official web portal to all federal, state and local government web resources and services.